Showing default

ORBCOMM FM 22, 25476

Orbit data source: Space-Track

ORBCOMM FM 22, 25476 is a payload satellite owned by Orbcomm (US) in LEO that was launched on Wed, 23 Sep 1998 UTC via a PEGASUS XL/HAPS launch vehicle from the Pegasus Launch, Eastern Range Air Space (ERAS). Payload-class satellites include a variety of spacecraft equipped with specific instruments for various scientific and technological missions. These include communications satellites like Starlink; space stations such as the ISS; scientific satellites like the Hubble; Earth observation satellites from companies like Planet Labs, Umbra, and HawkEye 360; GPS; miniature CubeSats for education and research; and military/defense satellites.

Loading next visibility...
Identifier
25476, 1998-053B
Orbit
LEO
Country
Flag of USUS / ORB
Related business
Manufacturer
OSC-Germantown
Mission
Non-operational Commercial Communications
Bus & Motor
MICROSTAR, Unknown motor
Mass
42 kg wet, 42 kg dry
Launch date (UTC)
1998-09-23 (27 years ago)
Launch vehicle
PEGASUS XL/HAPS
Launch site
Pegasus Launch, Eastern Range Air Space (ERAS)
Object type
Payload
Rocket body
Debris
Shape & HBR
Cyl + 2 Pan, 4.2 m
Radar Cross Section
1.484 m², Medium (>0.1 m² and < 1m²)

Expand to show TLE details & history
Last TLE update: 17 hours ago

TLE from 17 hours ago
0 ORBCOMM FM 22
1 25476U 98053B   25348.88664228  .00001178  00000-0  42406-3 0  9991
2 25476  45.0064 126.8162 0002530  76.1699 283.9431 14.38970244423291
Epoch: 2025-12-14T21:16Z
TLE epoch observation values (Epoch: 2025-12-14T21:16:45.892Z)
Latitude
-0.00004°
Longitude
83.83182°
Altitude
761.467 km
Speed
7.475 km/s
True Right ascension
08h 27m 15s
True Declination
0° 00' 00"
Sunlit
Object was in full shadow at epoch
Visualization orbit readout
Latitude
Unknown
Longitude
Unknown
Altitude
Unknown
Speed
Unknown
Apparent Right ascension
Unknown
Apparent Declination
Unknown
Sunlit
N/A
Visualization observer readout
Local Sidereal Time
13:23:51
Azimuth
Unknown
Elevation
Unknown
Doppler factor
Unknown
Orbital elements
Apogee altitude
765.255 km
Perigee altitude
761.642 km
Semi-major axis
7,141.585 km
Eccentricity
0.00025
Inclination
45.0064°
RAAN
126.8162°
Arg. of periapsis
76.1699°
True anomaly
283.91496°
Mean anomaly
283.9431°
Eccentric anomaly
283.92903°
Mean motion
3.59626 °/min
Orbital period
100.1 mins
BSTAR
0.00042406
Loading maneuver chart data...
Computing Atmospheric mass density...
Loading historical data...
Loading historical data...
Loading historical data...
Loading historical data...
Loading historical data...
Loading historical data...
Loading historical data...

Documentation

Showing up to 5 results
|